sat.trackr.live / text

‹ back to catalog

STARLINK-4438

NORAD 53682 · 2022-105AL

PAYLOAD ACTIVE UNKNOWN

§ Identity

Operator
Country
US
Launch date
2022-08-31
Launch site
AFWTR
Launch vehicle
Mass (kg)
RCS (m²)

Purposes: comms

External: N2YO · Heavens-Above · Gunter

§ Orbital elements

Epoch: 2026-05-25T03:10:52.266432Z

Period
95.64 min
Inclination
97.4497°
Eccentricity
0.0002384
Mean motion
15.05656872 rev/d
Perigee alt
547.8 km
Apogee alt
551.1 km
Semi-major
6,927.6 km
B*
-2.1659e-5
RAAN
26.1365°
Arg perigee
83.4153°
Mean anomaly
276.7346°
Rev number
20,480

§ Raw data

STARLINK-44381 53682U 22105AL  26145.13254938 -.00000371  00000+0 -21659-4 0  99962 53682  97.4497  26.1365 0002384  83.4153 276.7346 15.05656872204804

JSON: /api/v1/satellites/53682 · /tle

For live sub-satellite position, see the globe view (requires WebGL).

§ Visibility from observer

Set your observer location to see the next 7 days of passes ≥ 10°. The values pass through the URL so the page stays shareable.

No JS? Fill the form by hand. The geolocation button needs JavaScript.